Regional Weather Roundup
Issued by NWS Cleveland, OH

Home | Current Version | Previous Version | Text Only | Print | Product List | Glossary On
Versions: 1 2 3 4 5 6 7 8 9 10 11 12 13 14 15 16 17 18 19 20 21 22 23 24 25 26 27 28 29 30 31 32 33 34 35 36 37 38 39 40 41 42 43 44 45 46 47 48 49 50
000
ASUS41 KCLE 211510
RWRCLE
OHIO REGIONAL WEATHER ROUNDUP
NATIONAL WEATHER SERVICE CLEVELAND, OH
1000 AM EST SAT JAN 21 2017

NOTE: "FAIR" INDICATES FEW OR NO CLOUDS BELOW 12,000 FEET WITH NO
SIGNIFICANT WEATHER AND/OR OBSTRUCTIONS TO VISIBILITY.

OHZ001>008-015>018-024>027-034-035-043-044-211600-
   NORTHWEST OHIO

CITY           SKY/WX    TMP DP  RH WIND       PRES   REMARKS
DEFIANCE       MOSUNNY   48  46  93 S8        29.67S
FINDLAY        CLOUDY    52  47  83 S12       29.68S
TOLEDO EXPRESS SUNNY     49  48  97 S7        29.67S
TOLEDO EXEC    MOSUNNY   51  49  92 S9        29.68F
LIMA           MOSUNNY   51  49  92 S9        29.68S
$$

OHZ009>014-019>023-028>033-038-089-211600-
   NORTHEAST OHIO

CITY           SKY/WX    TMP DP  RH WIND       PRES   REMARKS
CLE-HOPKINS    MOSUNNY   57  49  74 S7        29.75R
CLE-LAKEFRONT  SUNNY     54  48  80 S16       29.71F
CUY CO. ARPT   MOSUNNY   55  50  82 S12       29.72F
LORAIN-ELYRIA  PTSUNNY   52  46  80 S12       29.73R
ASHTABULA      MOSUNNY   50  49  96 S8        29.75F
AKRON-CANTON   MOSUNNY   52  48  86 S10       29.75S
WOOSTER        SUNNY     51  48  89 S8        29.74F
MANSFIELD      PTSUNNY   52  49  89 S9        29.74R
YOUNGSTOWN     PTSUNNY   51  48  89 SE8       29.77S
$$

OHZ042-051>053-060>062-070>072-077>081-211600-
  SOUTHWEST OHIO

CITY           SKY/WX    TMP DP  RH WIND       PRES   REMARKS
CINC-COVINGTON CLOUDY    54  51  90 S9        29.71S
CINC-LUNKEN    CLOUDY    46  46 100 CALM      29.74R
HAMILTON       MOSUNNY   52  50  93 E3        29.73R
DAYTON         CLOUDY    52  49  89 S8        29.71S
WRIGHT-PAT AFB PTSUNNY   53  53  99 S5        29.71F
DAYTON GENERAL NOT AVBL
WILMINGTON     MOSUNNY   53  50  89 S8        29.73S
$$

OHZ036-037-039>041-045>050-054>059-063>069-073>076-082>088-211600-
  CENTRAL AND SOUTHEAST OHIO

CITY           SKY/WX    TMP DP  RH WIND       PRES   REMARKS
COLUMBUS       PTSUNNY   55  48  77 S6        29.73S
OSU AIRPORT    MOSUNNY   51  49  92 S7        29.73S
BOLTON FIELD   SUNNY     52  48  87 S5        29.74R
RICKENBACK AFB   N/A     53  50  91 S8        29.74S
NEWARK         SUNNY     49  46  90 CALM      29.74S
MARION         SUNNY     54  49  83 S12       29.72S
LANCASTER      SUNNY     53  49  86 SE5       29.75S
ZANESVILLE     SUNNY     52  49  89 CALM      29.75F
NEW PHILLY     NOT AVBL
$$




USA.gov is the U.S. government's official web portal to all federal, state and local government web resources and services.